Weather in Ogibalovo

Russia / Vologda Oblast     60°33′56″N   39°40′52″E
temp.,
°C
wind,
m/s
gust,
m/s
humid.,
%
clouds,
%
prec.,
mm/h
press.,
hPa
HPBL,
m
17 june, thu
thu1700:00+9w210655 0.0 1016223
03:00+7w27754 0.0 1018144
06:00+12wnw38645 0.0 1019391
09:00+16wnw510425 0.0 10201725
12:00+18nw51041100 0.0 10212249
15:00+17nnw3745100 0.0 10221959
18:00+20wnw46377 0.0 10222153
21:00+14wnw11640 0.0 102311
18 june, fri
fri1800:00+11w117120 0.0 102510
03:00+10ssw1273100 0.0 102514
06:00+14ssw256598 0.0 1025192
09:00+21wsw464664 0.0 1024927
12:00+25wsw5835100 0.0 10221715
15:00+26w59355 0.0 10202198
18:00+26wsw594071 0.0 10191936
21:00+20sw39625 0.0 1019220
19 june, sat
sat1900:00+15wsw2279100 0.0 102043
03:00+14wsw2108518 0.0 1020183
06:00+18wsw313680 0.0 1020370
09:00+24w510450 0.0 10191213
12:00+28w59330 0.0 10192011
15:00+29w58320 0.0 10182464
18:00+29w373719 0.0 10182539
21:00+22nnw226392 0.0 101926
20 june, sun
sun2000:00+20w1162100 0.0 102011
03:00+20wsw2263100 0.0 102029
06:00+21sw24650 0.0 1020172
09:00+26wsw36480 0.0 1019858
12:00+29wsw46340 0.0 10192281
15:00+30w47337 0.0 10172330
18:00+30w373862 0.0 10162226
21:00+23ssw25640 0.0 101683
21 june, mon
mon2100:00+19sw39780 0.0 1017181
03:00+17wsw26780 0.0 1018117
06:00+21sw386756 0.0 1018230
09:00+27wsw364749 0.0 1018598
12:00+30w463621 0.0 10182663
15:00+28wsw35453 0.0 10181061
18:00+27wsw254693 0.0 1018661
21:00+24wnw2354100 0.0 101964